Time,TemperatureF,DewpointF,PressureIn,WindDirection,WindDirectionDegrees,WindSpeedMPH,WindSpeedGustMPH,Humidity,HourlyPrecipIn,Conditions,Clouds,dailyrainin,SoftwareType,DateUTC
2013-01-14 00:10:00,39.9,-53.2,30.05,NE,45,2.7,-999.0,1,-99.99,,,0.00,Acu-Link.com,2013-01-14 08:10:00,
2013-01-14 00:25:00,39.7,-53.3,30.06,NNE,22,3.2,-999.0,1,-99.99,,,0.00,Acu-Link.com,2013-01-14 08:25:00,
2013-01-14 00:40:00,40.3,-52.9,30.06,NNW,337,2.7,-999.0,1,-99.99,,,0.00,Acu-Link.com,2013-01-14 08:40:00,
2013-01-14 00:55:00,40.3,-52.9,30.07,ESE,112,5.8,-999.0,1,-99.99,,,0.00,Acu-Link.com,2013-01-14 08:55:00,
2013-01-14 01:13:00,40.1,-53.0,30.07,WNW,292,3.7,-999.0,1,-99.99,,,0.00,Acu-Link.com,2013-01-14 09:13:00,
2013-01-14 01:28:00,39.9,-53.2,30.09,ESE,112,4.7,-999.0,1,-99.99,,,0.00,Acu-Link.com,2013-01-14 09:28:00,
2013-01-14 01:43:00,39.7,-53.3,30.09,NNW,337,3.7,-999.0,1,-99.99,,,0.00,Acu-Link.com,2013-01-14 09:43:00,
2013-01-14 01:58:00,40.3,-52.9,30.10,NE,45,7.3,-999.0,1,-99.99,,,0.00,Acu-Link.com,2013-01-14 09:58:00,
2013-01-14 02:13:00,39.9,-53.2,30.11,ESE,112,6.8,-999.0,1,-99.99,,,0.00,Acu-Link.com,2013-01-14 10:13:00,
2013-01-14 02:28:00,40.1,-53.0,30.11,NNE,22,4.7,-999.0,1,-99.99,,,0.00,Acu-Link.com,2013-01-14 10:28:00,
2013-01-14 02:43:00,39.6,-53.3,30.11,NNE,22,4.7,-999.0,1,-99.99,,,0.00,Acu-Link.com,2013-01-14 10:43:00,
2013-01-14 02:58:00,39.6,-53.3,30.12,NNE,22,7.3,-999.0,1,-99.99,,,0.00,Acu-Link.com,2013-01-14 10:58:00,
2013-01-14 03:14:00,39.2,-53.6,30.13,North,0,5.8,-999.0,1,-99.99,,,0.00,Acu-Link.com,2013-01-14 11:14:00,
2013-01-14 03:29:00,38.3,-54.2,30.12,NE,45,1.1,-999.0,1,-99.99,,,0.00,Acu-Link.com,2013-01-14 11:29:00,
2013-01-14 03:44:00,37.8,-54.5,30.13,NE,45,4.7,-999.0,1,-99.99,,,0.00,Acu-Link.com,2013-01-14 11:44:00,
2013-01-14 03:59:00,37.4,-54.7,30.13,West,270,3.7,-999.0,1,-99.99,,,0.00,Acu-Link.com,2013-01-14 11:59:00,
2013-01-14 04:14:00,36.5,-55.3,30.12,NNW,337,4.7,-999.0,1,-99.99,,,0.00,Acu-Link.com,2013-01-14 12:14:00,
2013-01-14 04:29:00,36.7,-55.1,30.11,East,90,2.2,-999.0,1,-99.99,,,0.00,Acu-Link.com,2013-01-14 12:29:00,
2013-01-14 04:44:00,37.0,-55.0,30.13,NE,45,6.3,-999.0,1,-99.99,,,0.00,Acu-Link.com,2013-01-14 12:44:00,
2013-01-14 04:59:00,37.2,-54.8,30.14,NW,315,5.3,-999.0,1,-99.99,,,0.00,Acu-Link.com,2013-01-14 12:59:00,
2013-01-14 05:14:00,37.0,-55.0,30.14,ESE,112,0.0,-999.0,1,-99.99,,,0.00,Acu-Link.com,2013-01-14 13:14:00,
2013-01-14 05:30:00,36.9,-55.0,30.12,ENE,67,4.2,-999.0,1,-99.99,,,0.00,Acu-Link.com,2013-01-14 13:30:00,
2013-01-14 05:45:00,36.5,-55.3,30.12,West,270,4.7,-999.0,1,-99.99,,,0.00,Acu-Link.com,2013-01-14 13:45:00,
2013-01-14 06:00:00,36.5,-55.3,30.12,West,270,5.8,-999.0,1,-99.99,,,0.00,Acu-Link.com,2013-01-14 14:00:00,
2013-01-14 06:15:00,36.3,-55.4,30.14,NE,45,1.1,-999.0,1,-99.99,,,0.00,Acu-Link.com,2013-01-14 14:15:00,
2013-01-14 06:31:00,35.8,-55.7,30.15,ESE,112,2.7,-999.0,1,-99.99,,,0.00,Acu-Link.com,2013-01-14 14:31:00,
2013-01-14 06:46:00,36.3,-55.4,30.14,North,0,8.9,-999.0,1,-99.99,,,0.02,Acu-Link.com,2013-01-14 14:46:00,
2013-01-14 07:01:00,36.5,-55.3,30.14,ESE,112,4.7,-999.0,1,-99.99,,,0.02,Acu-Link.com,2013-01-14 15:01:00,
2013-01-14 07:16:00,36.1,-55.5,30.16,East,90,8.3,-999.0,1,-99.99,,,0.02,Acu-Link.com,2013-01-14 15:16:00,
2013-01-14 07:31:00,36.7,-55.1,30.18,North,0,9.9,-999.0,1,-99.99,,,0.02,Acu-Link.com,2013-01-14 15:31:00,
2013-01-14 07:46:00,36.9,-55.0,30.18,NNE,22,6.3,-999.0,1,-99.99,,,0.02,Acu-Link.com,2013-01-14 15:46:00,
2013-01-14 08:01:00,37.2,-54.8,30.20,ENE,67,4.2,-999.0,1,-99.99,,,0.02,Acu-Link.com,2013-01-14 16:01:00,
2013-01-14 08:16:00,40.8,-52.6,30.21,ESE,112,2.2,-999.0,1,-99.99,,,0.02,Acu-Link.com,2013-01-14 16:16:00,
2013-01-14 08:31:00,42.8,-51.4,30.21,SSE,157,4.7,-999.0,1,-99.99,,,0.02,Acu-Link.com,2013-01-14 16:31:00,
2013-01-14 08:47:00,45.5,-49.7,30.21,NE,45,3.7,-999.0,1,-99.99,,,0.02,Acu-Link.com,2013-01-14 16:47:00,
2013-01-14 09:02:00,46.4,-49.2,30.22,ESE,112,8.3,-999.0,1,-99.99,,,0.02,Acu-Link.com,2013-01-14 17:02:00,
2013-01-14 09:17:00,48.4,-47.9,30.21,East,90,4.7,-999.0,1,-99.99,,,0.02,Acu-Link.com,2013-01-14 17:17:00,
2013-01-14 09:32:00,48.7,-47.7,30.22,NE,45,5.8,-999.0,1,-99.99,,,0.02,Acu-Link.com,2013-01-14 17:32:00,
2013-01-14 09:47:00,50.7,-46.5,30.22,South,180,4.7,-999.0,1,-99.99,,,0.02,Acu-Link.com,2013-01-14 17:47:00,
2013-01-14 10:02:00,52.0,-45.7,30.23,NNW,337,4.7,-999.0,1,-99.99,,,0.02,Acu-Link.com,2013-01-14 18:02:00,
2013-01-14 10:17:00,52.3,-45.5,30.21,NNW,337,4.2,-999.0,1,-99.99,,,0.02,Acu-Link.com,2013-01-14 18:17:00,
2013-01-14 10:32:00,52.3,-45.5,30.21,West,270,1.1,-999.0,1,-99.99,,,0.02,Acu-Link.com,2013-01-14 18:32:00,
2013-01-14 10:47:00,54.3,-44.3,30.21,NE,45,6.8,-999.0,1,-99.99,,,0.02,Acu-Link.com,2013-01-14 18:47:00,
2013-01-14 11:03:00,54.5,-44.2,30.20,ESE,112,5.3,-999.0,1,-99.99,,,0.02,Acu-Link.com,2013-01-14 19:03:00,
2013-01-14 11:18:00,55.9,-43.3,30.19,SSE,157,2.2,-999.0,1,-99.99,,,0.02,Acu-Link.com,2013-01-14 19:18:00,
2013-01-14 11:33:00,56.7,-42.9,30.19,East,90,1.1,-999.0,1,-99.99,,,0.02,Acu-Link.com,2013-01-14 19:33:00,
2013-01-14 11:48:00,56.8,-42.8,30.17,NNE,22,0.0,-999.0,1,-99.99,,,0.02,Acu-Link.com,2013-01-14 19:48:00,
2013-01-14 12:03:00,58.5,-41.8,30.17,NNE,22,5.3,-999.0,1,-99.99,,,0.02,Acu-Link.com,2013-01-14 20:03:00,
2013-01-14 12:18:00,59.7,-41.0,30.18,NE,45,3.2,-999.0,1,-99.99,,,0.02,Acu-Link.com,2013-01-14 20:18:00,
2013-01-14 12:33:00,59.9,-40.9,30.16,NNE,22,3.2,-999.0,1,-99.99,,,0.02,Acu-Link.com,2013-01-14 20:33:00,
2013-01-14 12:48:00,58.6,-41.7,30.15,North,0,2.2,-999.0,1,-99.99,,,0.02,Acu-Link.com,2013-01-14 20:48:00,
2013-01-14 13:03:00,57.2,-42.6,30.15,WSW,247,3.2,-999.0,1,-99.99,,,0.02,Acu-Link.com,2013-01-14 21:03:00,
2013-01-14 13:19:00,56.7,-42.9,30.14,NNW,337,0.0,-999.0,1,-99.99,,,0.02,Acu-Link.com,2013-01-14 21:19:00,
2013-01-14 13:34:00,53.2,-45.0,30.15,NE,45,1.1,-999.0,1,-99.99,,,0.02,Acu-Link.com,2013-01-14 21:34:00,
2013-01-14 13:49:00,52.9,-45.2,30.15,ESE,112,2.2,-999.0,1,-99.99,,,0.02,Acu-Link.com,2013-01-14 21:49:00,
2013-01-14 14:04:00,52.0,-45.7,30.14,ENE,67,4.2,-999.0,1,-99.99,,,0.02,Acu-Link.com,2013-01-14 22:04:00,
2013-01-14 14:19:00,54.0,-44.5,30.14,NNE,22,3.2,-999.0,1,-99.99,,,0.02,Acu-Link.com,2013-01-14 22:19:00,
2013-01-14 14:34:00,55.9,-43.3,30.15,ENE,67,5.8,-999.0,1,-99.99,,,0.02,Acu-Link.com,2013-01-14 22:34:00,
2013-01-14 14:50:00,55.9,-43.3,30.16,NE,45,3.2,-999.0,1,-99.99,,,0.02,Acu-Link.com,2013-01-14 22:50:00,
2013-01-14 15:05:00,56.1,-43.2,30.16,NNW,337,3.7,-999.0,1,-99.99,,,0.02,Acu-Link.com,2013-01-14 23:05:00,
2013-01-14 15:20:00,55.8,-43.4,30.17,NW,315,3.7,-999.0,1,-99.99,,,0.02,Acu-Link.com,2013-01-14 23:20:00,
2013-01-14 15:35:00,55.4,-43.7,30.16,SSW,202,1.1,-999.0,1,-99.99,,,0.02,Acu-Link.com,2013-01-14 23:35:00,
2013-01-14 15:50:00,54.1,-44.4,30.17,West,270,1.7,-999.0,1,-99.99,,,0.02,Acu-Link.com,2013-01-14 23:50:00,
2013-01-14 16:05:00,52.7,-45.3,30.18,ENE,67,3.7,-999.0,1,-99.99,,,0.02,Acu-Link.com,2013-01-15 00:05:00,
2013-01-14 16:20:00,51.3,-46.2,30.18,NNE,22,3.7,-999.0,1,-99.99,,,0.02,Acu-Link.com,2013-01-15 00:20:00,
2013-01-14 16:35:00,49.1,-47.5,30.18,ENE,67,3.7,-999.0,1,-99.99,,,0.02,Acu-Link.com,2013-01-15 00:35:00,
2013-01-14 16:50:00,47.8,-48.3,30.19,NNE,22,3.2,-999.0,1,-99.99,,,0.02,Acu-Link.com,2013-01-15 00:50:00,
2013-01-14 17:06:00,46.8,-48.9,30.19,North,0,0.0,-999.0,1,-99.99,,,0.02,Acu-Link.com,2013-01-15 01:06:00,
2013-01-14 17:21:00,45.5,-49.7,30.21,West,270,4.2,-999.0,1,-99.99,,,0.02,Acu-Link.com,2013-01-15 01:21:00,
2013-01-14 17:36:00,44.8,-50.1,30.20,NNW,337,0.0,-999.0,1,-99.99,,,0.02,Acu-Link.com,2013-01-15 01:36:00,
2013-01-14 17:51:00,45.0,-50.0,30.19,ESE,112,4.2,-999.0,1,-99.99,,,0.02,Acu-Link.com,2013-01-15 01:51:00,
2013-01-14 18:06:00,44.4,-50.4,30.20,ENE,67,0.0,-999.0,1,-99.99,,,0.02,Acu-Link.com,2013-01-15 02:06:00,
2013-01-14 18:21:00,44.1,-50.6,30.20,NE,45,2.7,-999.0,1,-99.99,,,0.02,Acu-Link.com,2013-01-15 02:21:00,
2013-01-14 18:36:00,43.7,-50.8,30.21,East,90,2.2,-999.0,1,-99.99,,,0.02,Acu-Link.com,2013-01-15 02:36:00,
2013-01-14 18:51:00,43.7,-50.8,30.21,NNE,22,4.2,-999.0,1,-99.99,,,0.02,Acu-Link.com,2013-01-15 02:51:00,
2013-01-14 19:06:00,44.1,-50.6,30.22,NE,45,6.8,-999.0,1,-99.99,,,0.02,Acu-Link.com,2013-01-15 03:06:00,
2013-01-14 19:22:00,44.2,-50.5,30.23,West,270,3.7,-999.0,1,-99.99,,,0.02,Acu-Link.com,2013-01-15 03:22:00,
2013-01-14 19:37:00,43.7,-50.8,30.23,North,0,4.2,-999.0,1,-99.99,,,0.02,Acu-Link.com,2013-01-15 03:37:00,
2013-01-14 19:52:00,43.3,-51.1,30.23,NNW,337,0.0,-999.0,1,-99.99,,,0.02,Acu-Link.com,2013-01-15 03:52:00,
2013-01-14 20:07:00,42.3,-51.7,30.21,ESE,112,0.0,-999.0,1,-99.99,,,0.02,Acu-Link.com,2013-01-15 04:07:00,
2013-01-14 20:22:00,43.5,-50.9,30.21,NNW,337,3.7,-999.0,1,-99.99,,,0.02,Acu-Link.com,2013-01-15 04:22:00,
2013-01-14 20:37:00,44.6,-50.3,30.21,SW,225,5.8,-999.0,1,-99.99,,,0.02,Acu-Link.com,2013-01-15 04:37:00,
2013-01-14 20:52:00,44.1,-50.6,30.22,ESE,112,8.3,-999.0,1,-99.99,,,0.02,Acu-Link.com,2013-01-15 04:52:00,
2013-01-14 21:07:00,43.5,-50.9,30.21,North,0,3.7,-999.0,1,-99.99,,,0.02,Acu-Link.com,2013-01-15 05:07:00,
2013-01-14 21:22:00,43.2,-51.1,30.22,ESE,112,4.2,-999.0,1,-99.99,,,0.02,Acu-Link.com,2013-01-15 05:22:00,
2013-01-14 21:38:00,43.2,-51.1,30.22,NNW,337,4.7,-999.0,1,-99.99,,,0.02,Acu-Link.com,2013-01-15 05:38:00,
2013-01-14 21:53:00,42.8,-51.4,30.23,WNW,292,4.2,-999.0,1,-99.99,,,0.02,Acu-Link.com,2013-01-15 05:53:00,
2013-01-14 22:08:00,43.2,-51.1,30.22,NW,315,8.3,-999.0,1,-99.99,,,0.02,Acu-Link.com,2013-01-15 06:08:00,
2013-01-14 22:23:00,42.4,-51.6,30.22,NE,45,4.2,-999.0,1,-99.99,,,0.02,Acu-Link.com,2013-01-15 06:23:00,
2013-01-14 22:38:00,41.5,-52.2,30.23,ESE,112,0.0,-999.0,1,-99.99,,,0.02,Acu-Link.com,2013-01-15 06:38:00,
2013-01-14 22:53:00,41.0,-52.5,30.23,NNE,22,3.2,-999.0,1,-99.99,,,0.02,Acu-Link.com,2013-01-15 06:53:00,
2013-01-14 23:08:00,41.9,-51.9,30.23,East,90,1.1,-999.0,1,-99.99,,,0.02,Acu-Link.com,2013-01-15 07:08:00,
2013-01-14 23:23:00,40.8,-52.6,30.23,SSW,202,3.2,-999.0,1,-99.99,,,0.02,Acu-Link.com,2013-01-15 07:23:00,
2013-01-14 23:38:00,40.3,-52.9,30.24,SSE,157,0.0,-999.0,1,-99.99,,,0.02,Acu-Link.com,2013-01-15 07:38:00,
2013-01-14 23:53:00,40.1,-53.0,30.24,WSW,247,0.0,-999.0,1,-99.99,,,0.02,Acu-Link.com,2013-01-15 07:53:00,